星链-11510 (STARLINK-11510)

导读

STARLINK-11510是美国于2025年1月8日08:00发射的星链系列卫星,星链是SpaceX打造的低轨卫星互联网星座,旨在为全球提供高速宽带服务,尤其覆盖偏远、网络基础设施匮乏区域。该卫星入轨后,将融入现有星链星座,扩充星座容量,提升全球卫星互联网服务的覆盖稳定性与通信容量。

基本信息
目录编号:
62516
目录名称:
STARLINK-11510
国际标识:
2025-004F
轨道中心:
EARTH
卫星名称:
星链-11510
卫星全名:
星链-11510 (STARLINK-11510)
卫星状态:
在轨 (已飞行605 天)
发射日期:
2025-01-08 UTC
国别 :
美国 (US)
星等 :
--
轨道信息
数据来源 国际轨道数据
星历时间: 2026-09-05T06:03:13+0800
9小时前
查看轨道信息
半长轴: 6734.609km
偏心率: 0.0001539
轨道倾角: 43.001°
近地点辐角 279.946°
升交点赤经 70.665°
平近点角 80.123°
近地点: 355.435km
远地点: 357.509km
周期: 91.670分钟
每日圈数: 15.708484
详细信息
固有亮度:
5
最大亮度:
2.5
卫星平台:
Starlink V1.0
覆盖范围:
全球
运营商:
太空探索技术公司
运营商所在国:
美国
制造商(研发单位):
太空探索技术公司
制造商所在国:
美国
使用方式:
暂无
卫星简介
Starlink 计划是 SpaceX 推出的全球卫星互联网项目,通过发射低轨道卫星,为全球尤其是偏远地区提供高速、低延迟的互联网服务。自 2019 年起,Starlink 已部署数千颗卫星,旨在缩小全球数字鸿沟,推动互联网普及。该项目还为军事、航空等行业提供通信支持,带来广泛经济效益。
2D轨道图
3D轨道图
轨道高度分析图
轨道倾角分析图
轨道综合分析图
查看轨道综合分析图